This demonstration page uses our WeatherBlox Daily Observations layout. Learn more.

Left ArrowRight Arrow

Hourly Observations for July 2, 2016

Temp ( °F °C ) Dew Point ( °F °C ) Humidity (%) Winds ( mph kmh ) Pressure ( in mb ) Visibility ( mi km ) Precip ( " mm )
12:53 am 00:53 Clear 63 17.2 53 11.7 70 70 VRB 3 6 30.12 1020 10 16 N/A
1:53 am 01:53 Clear 61 16.1 52 11.1 72 72 NNW 3 6 30.11 1020 10 16 N/A
2:53 am 02:53 Clear 56 13.3 52 11.1 87 87 N N/A 30.11 1020 10 16 N/A
3:53 am 03:53 Clear 54 12.2 50 10 87 87 N N/A 30.11 1020 10 16 N/A
4:53 am 04:53 Clear 52 11.1 49 9.4 89 89 N N/A 30.11 1020 10 16 N/A
5:53 am 05:53 Clear 51 10.6 49 9.4 92 92 W 3 6 30.13 1020 10 16 N/A
6:53 am 06:53 Sunny 53 11.7 50 10 89 89 N N/A 30.14 1021 10 16 N/A
7:53 am 07:53 Sunny 61 16.1 53 11.7 75 75 NE 3 6 30.14 1021 10 16 N/A
8:53 am 08:53 Sunny 66 18.9 54 12.2 65 65 NE 6 9 30.15 1021 10 16 N/A
9:53 am 09:53 Sunny 69 20.6 55 12.8 61 61 N N/A 30.16 1021 10 16 N/A
10:53 am 10:53 Sunny 73 22.8 56 13.3 55 55 N N/A 30.16 1021 10 16 N/A
11:53 am 11:53 Sunny 75 23.9 53 11.7 46 46 N N/A 30.14 1021 10 16 N/A
12:53 pm 12:53 Sunny 76 24.4 53 11.7 45 45 VRB 3 6 30.13 1020 10 16 N/A
1:53 pm 13:53 Sunny 76 24.4 49 9.4 39 39 N N/A 30.12 1020 10 16 N/A
2:53 pm 14:53 Sunny 78 25.6 52 11.1 40 40 N 3 6 30.12 1020 10 16 N/A
3:53 pm 15:53 Sunny 76 24.4 54 12.2 47 47 NNE 9 15 30.11 1020 10 16 N/A
4:53 pm 16:53 Sunny 76 24.4 56 13.3 50 50 N 7 11 30.12 1020 10 16 N/A
5:53 pm 17:53 Sunny 74 23.3 56 13.3 54 54 NNW 5 7 30.12 1020 10 16 N/A
6:53 pm 18:53 Cloudy with Light Rain 73 22.8 56 13.3 55 55 N 5 7 30.12 1020 10 16 N/A
7:53 pm 19:53 Mostly Cloudy 70 21.1 60 15.6 71 71 N N/A 30.11 1020 10 16 N/A
8:53 pm 20:53 Cloudy 68 20 61 16.1 78 78 N N/A 30.11 1020 10 16 N/A
9:53 pm 21:53 Cloudy 67 19.4 60 15.6 79 79 N N/A 30.12 1020 10 16 N/A
10:53 pm 22:53 Cloudy 66 18.9 60 15.6 81 81 N N/A 30.11 1020 10 16 N/A
11:53 pm 23:53 Cloudy 65 18.3 60 15.6 84 84 N N/A 30.11 1020 10 16 N/A

Powered by AerisWeather